FW0810 Weather Reports


time (UTC)temp
C
wind
direction
speed
KPH
gust
KPH
rain 1hr
cm
rain 24hr
cm
rain mn
cm
humidity
%
barometer
mb
20260503212018 14 279 0.0 0.0 0.00 0.00 0.00 75 1022.0
20260503211517 14 279 0.0 3.2 0.00 0.00 0.00 74 1022.0
20260503211015 14 280 0.0 3.2 0.00 0.00 0.00 74 1022.0
20260503210515 15 283 0.0 1.6 0.00 0.00 0.00 73 1022.0
20260503210015 15 276 0.0 1.6 0.00 0.00 0.00 72 1021.9
20260503205514 15 274 0.0 3.2 0.00 0.00 0.00 71 1021.9
20260503205015 15 270 0.0 3.2 0.00 0.00 0.00 71 1021.9
20260503203513 15 284 1.6 8.0 0.00 0.00 0.00 71 1021.7
20260503203013 16 297 1.6 8.0 0.00 0.00 0.00 70 1021.7
20260503202509 16 281 0.0 8.0 0.00 0.00 0.00 69 1021.6
20260503201507 16 271 0.0 1.6 0.00 0.00 0.00 68 1021.4
20260503201007 16 271 0.0 6.4 0.00 0.00 0.00 68 1021.3
20260503200506 16 271 0.0 6.4 0.00 0.00 0.00 68 1021.3
20260503200009 16 271 0.0 4.8 0.00 0.00 0.00 68 1021.2
20260503195507 16 271 0.0 0.0 0.00 0.00 0.00 67 1021.2
20260503194504 17 271 0.0 4.8 0.00 0.00 0.00 66 1021.2
20260503193003 17 246 0.0 3.2 0.00 0.00 0.00 64 1021.1
20260503192503 18 273 0.0 4.8 0.00 0.00 0.00 63 1021.0
20260503192003 18 274 0.0 4.8 0.00 0.00 0.00 61 1021.0
20260503191506 18 320 0.0 3.2 0.00 0.00 0.00 60 1020.9
20260503191003 18 264 0.0 3.2 0.00 0.00 0.00 60 1020.9
20260503190504 18 310 0.0 3.2 0.00 0.00 0.00 59 1020.8
20260503190000 18 342 0.0 1.6 0.00 0.00 0.00 59 1020.8
20260503185502 19 281 0.0 0.0 0.00 0.00 0.00 59 1020.8
20260503185001 19 281 0.0 0.0 0.00 0.00 0.00 59 1020.7
20260503184502 19 281 0.0 0.0 0.00 0.00 0.00 59 1020.6
20260503184000 19 304 0.0 0.0 0.00 0.00 0.00 58 1020.6
20260503183502 19 306 0.0 0.0 0.00 0.00 0.00 58 1020.5
20260503183001 20 307 0.0 1.6 0.00 0.00 0.00 58 1020.6
20260503182503 20 279 0.0 1.6 0.00 0.00 0.00 58 1020.5
20260503182001 20 279 0.0 4.8 0.00 0.00 0.00 58 1020.5
20260503181459 20 281 0.0 4.8 0.00 0.00 0.00 58 1020.5
20260503180457 20 297 0.0 0.0 0.00 0.00 0.00 56 1020.4
20260503175956 21 297 0.0 1.6 0.00 0.00 0.00 55 1020.4
20260503175454 21 298 0.0 1.6 0.00 0.00 0.00 53 1020.4
20260503174451 21 303 0.0 1.6 0.00 0.00 0.00 51 1020.4
20260503173948 22 316 0.0 1.6 0.00 0.00 0.00 50 1020.3
20260503173447 22 342 0.0 1.6 0.00 0.00 0.00 48 1020.3
20260503171943 23 300 0.0 0.0 0.00 0.00 0.00 45 1020.2
20260503171441 23 305 0.0 0.0 0.00 0.00 0.00 43 1020.3
20260503170439 24 294 0.0 0.0 0.00 0.00 0.00 40 1020.2
20260503150417 25 266 1.6 11.3 0.00 0.00 0.00 42 1020.5
20260503131345 25 350 3.2 14.5 0.00 0.00 0.00 39 1021.7
20260503130837 25 226 3.2 14.5 0.00 0.00 0.00 41 1021.7
20260503130331 25 271 1.6 11.3 0.00 0.00 0.00 41 1021.7
20260503120218 24 346 1.6 12.9 0.00 0.00 0.00 39 1022.1
20260503110201 22 189 1.6 8.0 0.00 0.00 0.00 45 1022.3
20260503100151 21 161 1.6 6.4 0.00 0.00 0.00 51 1023.0
20260503090147 18 108 1.6 8.0 0.00 0.00 0.00 63 1023.6
20260503081135 16 139 1.6 4.8 0.00 0.00 0.00 69 1023.9
20260503080630 16 150 0.0 6.4 0.00 0.00 0.00 70 1024.0
20260503080124 15 143 0.0 6.4 0.00 0.00 0.00 70 1024.0
20260503072542 14 116 0.0 4.8 0.00 0.00 0.00 73 1024.2
20260503072036 14 120 0.0 4.8 0.00 0.00 0.00 72 1024.4
20260503071531 13 124 0.0 4.8 0.00 0.00 0.00 73 1024.4
20260503070517 13 98 0.0 4.8 0.00 0.00 0.00 72 1024.5
20260503054953 8 276 0.0 1.6 0.00 0.00 0.00 86 1024.6
20260503054453 8 276 0.0 0.0 0.00 0.00 0.00 87 1024.5
20260503053504 7 276 0.0 0.0 0.00 0.00 0.00 87 1024.4
20260503052948 7 276 0.0 0.0 0.00 0.00 0.00 87 1024.4
20260503052446 7 276 0.0 1.6 0.00 0.00 0.00 88 1024.4
20260503051945 6 276 0.0 1.6 0.00 0.00 0.00 88 1024.2
20260503051442 6 275 0.0 0.0 0.00 0.00 0.00 88 1024.4
20260503050935 6 275 0.0 0.0 0.00 0.00 0.00 88 1024.4
20260503045936 6 275 0.0 0.0 0.00 0.00 0.00 88 1024.2
20260503045433 6 275 0.0 0.0 0.00 0.00 0.00 88 1024.4
20260503044429 5 275 0.0 0.0 0.00 0.00 0.00 88 1024.2
20260503043932 5 275 0.0 0.0 0.00 0.00 0.00 88 1024.2
20260503043430 5 275 0.0 0.0 0.00 0.00 0.00 88 1024.1
20260503042929 5 275 0.0 0.0 0.00 0.00 0.00 88 1024.1
20260503042430 5 275 0.0 0.0 0.00 0.00 0.00 88 1024.1
20260503041928 5 275 0.0 0.0 0.00 0.00 0.00 87 1024.0
20260503041425 5 275 0.0 0.0 0.00 0.00 0.00 87 1024.0
20260503040926 5 275 0.0 0.0 0.00 0.00 0.00 87 1024.1
20260503035926 5 275 0.0 0.0 0.00 0.00 0.00 87 1024.0
20260503035427 5 275 0.0 0.0 0.00 0.00 0.00 87 1023.9
20260503034926 5 275 0.0 0.0 0.00 0.00 0.00 87 1024.0
20260503033938 5 275 0.0 0.0 0.00 0.00 0.00 86 1023.9
20260503033420 6 275 0.0 0.0 0.00 0.00 0.00 87 1023.9
20260503032913 6 275 0.0 0.0 0.00 0.00 0.00 86 1023.9
20260503031928 6 275 0.0 0.0 0.00 0.00 0.00 86 1023.9
20260503031413 6 275 0.0 0.0 0.00 0.00 0.00 86 1023.9
20260503030913 6 275 0.0 0.0 0.00 0.00 0.00 86 1023.8
20260503030414 6 275 0.0 0.0 0.00 0.00 0.00 86 1023.8
20260503025914 6 275 0.0 0.0 0.00 0.00 0.00 86 1023.8
20260503025413 6 274 0.0 0.0 0.00 0.00 0.00 86 1023.8
20260503024409 6 274 0.0 0.0 0.00 0.00 0.00 86 1023.8
20260503023407 6 275 0.0 0.0 0.00 0.00 0.00 85 1023.7
20260503022908 6 275 0.0 0.0 0.00 0.00 0.00 85 1023.7
20260503022405 6 275 0.0 0.0 0.00 0.00 0.00 85 1023.7
20260503021404 6 275 0.0 0.0 0.00 0.00 0.00 85 1023.8
20260503020357 6 275 0.0 0.0 0.00 0.00 0.00 85 1023.9
20260503015357 7 274 0.0 0.0 0.00 0.00 0.00 84 1023.9
20260503014855 7 274 0.0 0.0 0.00 0.00 0.00 84 1024.0
20260503014355 7 274 0.0 0.0 0.00 0.00 0.00 85 1023.9
20260503013855 7 274 0.0 0.0 0.00 0.00 0.00 85 1023.9
20260503013355 7 274 0.0 0.0 0.00 0.00 0.00 84 1023.9
20260503012855 7 274 0.0 0.0 0.00 0.00 0.00 84 1023.9
20260503012353 7 274 0.0 1.6 0.00 0.00 0.00 84 1023.9
20260503011351 7 274 0.0 0.0 0.00 0.00 0.00 85 1024.0
20260503010349 7 274 0.0 0.0 0.00 0.00 0.00 84 1024.0
20260503005847 7 274 0.0 0.0 0.00 0.00 0.00 84 1024.0
20260503004847 7 274 0.0 0.0 0.00 0.00 0.00 83 1024.1
20260503004346 7 274 0.0 0.0 0.00 0.00 0.00 82 1024.2
20260503003846 7 274 0.0 0.0 0.00 0.00 0.00 82 1024.1
20260503002843 8 274 0.0 0.0 0.00 0.00 0.00 81 1024.1
20260503002345 8 274 0.0 0.0 0.00 0.00 0.00 81 1024.1
20260503001843 8 274 0.0 0.0 0.00 0.00 0.00 81 1024.4
20260503001341 8 274 0.0 0.0 0.00 0.00 0.00 81 1024.4
20260503000341 8 274 0.0 0.0 0.00 0.00 0.00 80 1024.1
20260502235841 8 274 0.0 0.0 0.00 0.00 0.00 80 1024.1
20260502234839 8 276 0.0 0.0 0.00 0.00 0.00 80 1024.4
20260502233834 8 276 0.0 0.0 0.00 0.00 0.00 81 1024.4
20260502233337 8 275 0.0 0.0 0.00 0.00 0.00 81 1024.4
20260502232836 8 275 0.0 0.0 0.00 0.00 0.00 80 1024.4
20260502232335 8 275 0.0 0.0 0.00 0.00 0.00 80 1024.4
20260502231835 8 275 0.0 0.0 0.00 0.00 0.00 80 1024.5
20260502231335 8 275 0.0 1.6 0.00 0.00 0.00 80 1024.4
20260502230837 8 275 1.6 6.4 0.00 0.00 0.00 80 1024.5
20260502230334 8 272 1.6 6.4 0.00 0.00 0.00 80 1024.4
20260502225835 8 276 0.0 6.4 0.00 0.00 0.00 80 1024.4
20260502225335 8 269 0.0 4.8 0.00 0.00 0.00 79 1024.5
20260502224836 8 269 0.0 4.8 0.00 0.00 0.00 79 1024.5
20260502224334 9 269 0.0 4.8 0.00 0.00 0.00 79 1024.5
20260502223835 9 280 0.0 4.8 0.00 0.00 0.00 78 1024.6
20260502223335 9 274 0.0 3.2 0.00 0.00 0.00 78 1024.5
20260502222840 9 273 0.0 4.8 0.00 0.00 0.00 78 1024.5
20260502222334 9 274 0.0 4.8 0.00 0.00 0.00 78 1024.6
20260502221833 9 272 0.0 3.2 0.00 0.00 0.00 78 1024.6
20260502221333 9 278 1.6 8.0 0.00 0.00 0.00 77 1024.6
20260502220830 10 277 1.6 8.0 0.00 0.00 0.00 76 1024.6
20260502220329 10 275 1.6 6.4 0.00 0.00 0.00 75 1024.7
20260502215831 10 269 1.6 8.0 0.00 0.00 0.00 74 1024.6
20260502215329 10 271 3.2 8.0 0.00 0.00 0.00 73 1024.6
20260502214830 11 275 1.6 8.0 0.00 0.00 0.00 73 1024.6
20260502214330 11 273 1.6 6.4 0.00 0.00 0.00 73 1024.6
20260502213829 10 264 1.6 4.8 0.00 0.00 0.00 74 1024.5
20260502213330 11 276 1.6 8.0 0.00 0.00 0.00 73 1024.4
20260502212829 11 274 3.2 8.0 0.00 0.00 0.00 72 1024.4